Probability
0 0 0 0 0 0 0 0 0 0 0 0 0 0 0 0 0 0 0 0 0 0 0 0 0 0 0 0 0 0 0 0 0 0 0 0 0 0
0 0 0 0 0 0 0 0 0 0 0 0 0 0 0 0 0 0 0 0 0 0 0 0 0 0 0 0 0 0 0 0 0 0 0 0 0 0
0 0 0 0 0 0 0 0 0 0 0 0 0 0 0 0 0 0 0 0 0 0 0 0 0 0 0 0 0 0 0 0 0 0 0 0 0 0
0 0 0 0 0 0 0 0 0 0 0 0 0 0 0 0 0 0 0 0 0 0 0 0 0 0 0 0 0 0 0 0 0 0 0 0 0 0
0 0 0 0 0 0 0 0 0 0 0 0 0 0 0 0 0 0 0 0 0 0 0 0 0 0 0 0 0 0 0 0 0 0 0 0 0 0
0 0 0 0 0 0 0 0 0 0 0 0 0 0 0 0 0 0 0 0 0 0 0 0 0 0 0 0 0 0 0 0 0 0 0 0 0 0
0 0 0 0 0 0 0 0 0 0 0 0 0 0 0 0 0 0 0 0 0 0 0 0 0 0 0 0 0 0 0 0 0 0 0 0 0 0
0 0 0 0 0 0 0 0 0 0 0 0 0 0 0 0 0 0 0 0 0 0 0 0 0 0 0 0 0 0 0 0 0 0 0 0 0 0
0 0 0 0 0 0 0 0 0 0 0 0 0 0 0 0 0 0 0 0 0 0 0 0 0 0 0 0 0 0 0 0 0 0 0 0 0 0
0 0 0 0 0 0 0 0 0 0 0 0 0 0 0 0 0 0 0 0 0 0 0 0 0 0 0 0 0 0 0 0 0 0 0 0 0 0
0 0 0 0 0 0 0 0 0 0 0 0 0 0 0 0 0 0 0 0 0 0 0 0 0 0 0 0 0 0 0 0 0 0 0 0 0 0
0 0 0 0 0 0 0 0 0 0 0 0 0 0 0 0 0 0 0 0 0 0 0 0 0 0 0 0 0 0 0 0 0 0 0 0 0 0
0 0 0 0 0 0 0 0 0 0 0 0 0 0 0 0 0 0 0 0 0 0 0 0 0 0 0 0 0 0 0 0 0 0 0 0 0 0
0 0 0 0 0 0 0 0 0 0 0 0 0 0 0 0 0 0 0 0 0 0 0 0 0 0 0 0 0 0 0 0 0 0 0 0 0 0
0 0 0 0 0 0 0 0 0 0 0 0 0 0 0 0 0 0 0 0 0 0 0 0 0 0 0 0 0 0 0 0 0 0 0 0 0 0
0 0 0 0 0 0 0 0 0 0 0 0 0 0 0 0 0 0 0 0 0 0 0 0 0 0 0 0 0 0 0 0 0 0 0 0 0 0
0 0 0 0 0 0 0 0 0 0 0 0 0 0 0 0 0 0 0 0 0 0 0 0 0 0 0 0 0 0 0 0 0 0 0 0 0 0
0 0 0 0 0 0 0 0 0 0 0 0 0 0 0 0 0 0 0 0 0 0 0 0 0 0 0 0 0 0 0 0 0 0 0 0 0 0
0 0 0 0 0 0 0 0 0 0 0 0 0 0 0 0 0 0 0 0 0 0 0 0 0 0 0 0 0 0 0 0 0 0 0 0 0 0
0 0 0 0 0 0 0 0 0 0 0 0 0 0 0 0 0 0 0 0 0 0 0 0 0 0 0 0 0 0 0 0 0 0 0 0 0 0
0 0 0 0 0 0 0 0 0 0 0 0 0 0 0 0 0 0 0 0 0 0 0 0 0 0 0 0 0 0 0 0 0 0 0 0 0 0
0 0 0 0 0 0 0 0 0 0 0 0 0 0 0 0 0 0 0 0 0 0 0 0 0 0 0 0 0 0 0 0 0 0 0 0 0 0
0 0 0 0 0 0 0 0 0 0 0 0 0 0 0 0 0 0 0 0 0 0 0 0 0 0 0 0 0 0 0 0 0 0 0 0 0 0
Height
5684 5679 5675 5670 5665 5661 5656 5652 5648 5646 5643 5637 5630 5624 5618 5613 5607 5602 5596 5591 5585 5579 5574 5569 5564 5559 5554 5550 5546 5543 5539 5537 5535 5533 5532 5532 5532 5533
5673 5668 5663 5659 5654 5648 5643 5639 5634 5630 5628 5623 5616 5609 5603 5597 5590 5584 5578 5572 5566 5559 5553 5547 5541 5535 5530 5525 5520 5516 5513 5510 5508 5507 5505 5505 5505 5506
5662 5657 5652 5646 5641 5636 5631 5625 5620 5615 5612 5609 5600 5593 5586 5579 5573 5565 5559 5552 5545 5538 5531 5523 5517 5510 5504 5499 5494 5489 5486 5483 5480 5478 5477 5476 5476 5478
5650 5645 5639 5634 5629 5623 5617 5611 5605 5599 5594 5591 5585 5576 5568 5560 5553 5546 5539 5531 5523 5515 5507 5500 5492 5485 5479 5472 5467 5462 5459 5455 5453 5450 5449 5448 5448 5448
5638 5633 5627 5621 5615 5609 5603 5597 5590 5583 5576 5571 5566 5558 5549 5540 5532 5525 5517 5509 5500 5492 5484 5476 5468 5461 5454 5447 5442 5437 5433 5430 5427 5424 5422 5421 5421 5421
5626 5620 5614 5607 5601 5595 5588 5581 5574 5566 5559 5552 5546 5539 5530 5520 5510 5503 5497 5488 5479 5469 5460 5452 5445 5438 5431 5424 5419 5415 5411 5407 5404 5402 5400 5399 5398 5399
5613 5607 5600 5593 5586 5579 5572 5565 5557 5549 5541 5533 5526 5518 5510 5499 5490 5481 5473 5467 5459 5447 5439 5432 5424 5418 5411 5405 5400 5395 5392 5388 5386 5384 5382 5381 5381 5381
5600 5594 5586 5579 5571 5563 5555 5547 5539 5530 5521 5513 5506 5497 5489 5478 5469 5459 5450 5444 5439 5430 5419 5414 5405 5400 5393 5388 5383 5379 5376 5373 5371 5369 5368 5367 5367 5367
5586 5579 5572 5564 5555 5548 5540 5531 5522 5511 5501 5492 5485 5477 5467 5458 5448 5440 5431 5423 5416 5409 5401 5397 5389 5384 5378 5373 5369 5366 5363 5361 5359 5358 5357 5356 5356 5356
5571 5564 5556 5548 5539 5530 5523 5515 5505 5494 5483 5474 5465 5457 5447 5438 5428 5420 5413 5406 5400 5392 5383 5379 5375 5370 5365 5360 5357 5354 5353 5351 5349 5348 5347 5347 5347 5347
5557 5548 5539 5531 5522 5513 5504 5497 5488 5478 5466 5456 5446 5437 5428 5419 5410 5402 5395 5388 5383 5377 5369 5364 5361 5357 5354 5350 5347 5345 5344 5342 5341 5340 5339 5339 5339 5339
5542 5533 5523 5514 5505 5494 5485 5476 5469 5460 5450 5440 5430 5421 5411 5403 5394 5386 5379 5372 5367 5363 5357 5352 5349 5346 5345 5342 5339 5338 5336 5335 5334 5333 5333 5332 5332 5333
5526 5517 5507 5497 5487 5477 5467 5457 5448 5439 5431 5422 5413 5405 5396 5388 5380 5373 5365 5359 5353 5349 5345 5342 5339 5337 5335 5335 5333 5331 5330 5329 5328 5327 5327 5327 5327 5327
5508 5499 5490 5480 5470 5460 5449 5439 5429 5420 5412 5403 5396 5388 5380 5373 5366 5359 5353 5347 5342 5339 5335 5333 5331 5330 5328 5328 5327 5326 5324 5324 5323 5323 5322 5322 5322 5323
5490 5482 5473 5463 5453 5443 5432 5422 5412 5403 5395 5387 5379 5372 5365 5358 5352 5347 5341 5337 5333 5330 5327 5325 5324 5323 5322 5322 5321 5320 5320 5319 5319 5319 5318 5318 5319 5319
5473 5465 5455 5445 5435 5426 5416 5406 5397 5388 5380 5372 5364 5357 5351 5345 5340 5335 5331 5328 5325 5323 5320 5319 5318 5318 5317 5317 5316 5315 5315 5315 5315 5315 5315 5315 5315 5316
5456 5448 5439 5429 5419 5410 5401 5392 5383 5375 5366 5358 5351 5345 5339 5334 5330 5326 5322 5320 5318 5316 5315 5314 5313 5313 5312 5312 5312 5311 5311 5311 5312 5312 5312 5312 5313 5313
5438 5430 5421 5411 5402 5393 5385 5377 5369 5361 5353 5346 5339 5334 5329 5325 5321 5318 5315 5313 5312 5311 5310 5309 5308 5308 5308 5308 5308 5308 5308 5308 5309 5309 5309 5310 5310 5311
5421 5412 5404 5395 5386 5377 5370 5362 5355 5348 5341 5335 5329 5324 5320 5317 5314 5311 5309 5308 5307 5306 5305 5304 5304 5304 5304 5304 5304 5305 5305 5305 5306 5307 5307 5307 5308 5308
5405 5396 5388 5379 5371 5363 5356 5349 5343 5336 5330 5325 5320 5316 5312 5309 5307 5305 5304 5303 5302 5301 5301 5300 5300 5300 5300 5301 5301 5301 5302 5303 5303 5304 5305 5305 5305 5306
5390 5381 5372 5364 5357 5349 5343 5337 5331 5326 5321 5316 5312 5309 5305 5303 5301 5299 5298 5298 5297 5297 5297 5297 5297 5297 5297 5298 5298 5299 5300 5300 5301 5302 5303 5303 5304 5304
5375 5367 5359 5351 5344 5337 5331 5325 5320 5316 5311 5308 5304 5301 5299 5297 5295 5294 5293 5293 5293 5293 5293 5293 5293 5294 5294 5295 5295 5296 5297 5298 5299 5300 5300 5301 5302 5303
5360 5353 5346 5338 5331 5325 5319 5315 5310 5306 5303 5299 5297 5294 5292 5291 5289 5289 5288 5288 5288 5289 5289 5290 5290 5291 5291 5292 5293 5294 5295 5296 5297 5298 5299 5300 5301 5302
Wind_Speed
47 47 48 49 50 50 50 50 50 49 48 50 52 53 55 57 58 60 61 62 63 65 66 67 69 70 72 73 74 75 75 76 76 76 76 76 76 76
48 48 49 50 50 51 51 51 52 52 52 53 55 57 59 60 62 63 64 65 67 68 70 71 73 74 75 76 77 77 78 78 79 79 79 80 80 80
49 50 51 51 51 51 52 53 55 56 57 57 59 61 63 64 65 66 68 69 70 72 73 74 76 77 77 77 78 78 79 79 80 81 81 82 82 82
50 51 51 52 52 53 55 56 58 60 61 61 62 64 66 67 69 70 71 72 74 74 75 76 76 77 76 76 77 77 76 76 76 76 77 77 77 78
51 52 52 53 55 56 58 59 61 63 64 65 65 67 69 70 71 72 73 74 75 75 76 76 76 75 75 75 74 73 71 70 69 69 68 68 68 69
52 53 54 56 57 59 61 62 64 65 67 68 69 70 71 72 74 74 74 74 74 75 75 74 72 71 69 68 66 64 62 61 59 57 56 55 55 56
53 55 57 59 60 62 63 65 66 68 70 71 72 72 72 73 74 74 74 73 72 71 69 67 66 64 62 61 59 57 54 52 50 48 46 46 45 45
55 58 60 61 63 64 66 67 69 71 72 73 74 74 73 74 74 73 72 70 67 65 64 61 61 58 56 55 52 49 47 44 42 40 38 37 37 37
58 60 62 64 65 66 68 69 71 72 74 75 75 74 74 73 72 70 68 66 63 61 60 56 54 52 50 48 45 42 38 36 34 33 32 31 31 31
61 63 64 65 67 69 70 71 72 72 74 75 75 74 72 70 69 67 65 62 60 58 56 52 47 44 42 40 38 34 32 30 29 29 28 27 27 27
63 65 67 68 70 72 72 72 72 72 74 74 73 70 68 67 66 64 62 60 56 52 50 46 41 38 35 34 31 29 28 26 26 25 25 24 24 23
65 67 68 70 71 72 73 73 73 73 73 71 68 67 66 64 62 61 58 55 52 47 43 40 36 33 29 28 27 26 24 23 22 21 21 21 20 20
67 68 69 71 71 72 73 74 74 73 71 68 66 64 63 61 58 56 54 51 47 42 37 33 30 28 25 22 23 23 21 20 19 19 18 17 17 17
69 69 70 71 72 72 73 73 72 70 68 65 63 61 59 56 54 52 49 45 41 36 32 29 26 24 21 20 19 19 18 17 16 16 15 15 14 14
69 70 70 71 71 71 71 69 68 66 63 62 60 58 55 52 50 46 42 38 33 30 27 24 22 20 19 18 17 17 16 14 13 13 13 12 12 12
69 69 70 70 70 69 67 65 63 62 61 59 57 53 50 47 44 40 36 32 28 26 24 21 19 18 17 17 16 15 13 12 12 11 11 11 10 11
69 69 69 68 67 66 64 62 60 59 58 56 52 48 45 41 37 33 30 26 24 22 20 19 17 16 16 15 14 13 12 11 10 10 10 9 9 9
70 69 67 67 66 63 61 59 57 56 54 50 47 43 39 35 32 28 25 23 21 19 18 16 15 14 14 13 12 11 11 10 9 9 9 9 8 9
69 67 66 65 63 60 58 55 54 52 49 45 41 37 34 30 28 24 22 20 18 17 16 14 13 13 13 12 11 10 9 9 8 8 8 8 8 8
67 66 64 62 59 57 54 52 50 47 44 39 36 33 30 27 24 22 20 18 16 15 14 13 12 12 11 11 10 9 8 8 8 7 7 7 7 7
65 63 61 58 56 54 52 49 46 42 39 35 33 30 27 24 22 20 18 17 15 13 12 11 11 10 10 10 9 8 8 8 7 7 7 7 7 6
62 59 57 55 53 51 48 45 41 38 35 33 30 27 24 22 20 18 16 15 13 12 11 10 10 9 9 9 9 8 8 8 8 7 7 6 6 6
58 55 54 52 49 46 43 40 37 35 33 30 27 24 22 20 18 16 15 13 12 11 10 10 9 9 9 8 8 8 8 8 7 7 6 6 5 5
Wind_Direction
300 301 301 302 302 302 302 302 301 300 300 299 299 298 298 297 296 296 295 294 293 292 291 290 289 287 286 284 283 281 280 278 277 275 274 272 271 269
301 302 302 302 302 302 302 302 302 301 301 301 300 299 299 298 298 297 296 295 294 293 292 291 290 288 287 285 283 281 280 278 277 275 273 272 270 268
302 302 303 302 303 303 303 303 302 302 302 302 301 301 300 299 298 297 297 296 295 294 293 292 291 290 289 287 285 284 282 280 278 276 274 272 270 268
302 303 303 303 303 303 303 303 303 303 303 303 302 301 301 300 299 298 297 297 296 295 294 294 293 292 290 289 287 285 283 281 279 277 275 272 270 267
303 303 303 303 304 304 304 304 304 304 304 303 303 302 301 300 300 299 299 298 297 297 296 295 294 292 291 289 288 287 285 283 281 279 276 273 270 267
303 304 304 304 305 305 305 305 304 304 304 304 304 303 302 302 301 300 299 299 298 298 297 296 295 294 293 291 290 288 287 285 283 280 277 274 271 268
304 304 305 305 305 305 305 305 305 305 305 305 305 304 303 302 301 301 300 300 299 299 298 297 296 295 294 293 291 290 288 286 283 280 278 275 272 269
304 304 305 305 305 305 306 306 306 306 306 305 305 305 304 303 302 302 302 302 301 300 298 298 297 296 294 293 292 290 288 286 283 280 278 275 272 269
304 305 305 306 305 305 306 306 307 306 306 306 306 306 305 304 304 304 304 304 303 302 300 299 297 296 295 293 292 290 287 285 283 281 279 276 273 270
305 306 306 306 306 306 306 307 307 307 306 306 306 306 306 305 305 305 304 304 304 303 301 300 297 296 294 293 291 289 287 285 284 281 279 277 274 271
306 306 306 306 306 306 307 307 307 307 307 307 307 306 306 306 306 305 305 305 305 304 301 300 298 296 294 293 291 289 288 286 284 281 279 276 273 270
306 307 306 307 307 307 307 308 308 307 307 307 306 306 306 306 306 306 306 306 306 304 301 299 298 295 293 291 289 289 288 286 283 281 278 275 273 269
307 307 307 307 308 308 308 308 308 308 308 307 306 306 306 305 305 305 305 305 305 304 301 298 297 294 293 289 288 289 288 286 284 281 278 275 272 268
307 307 308 308 308 309 308 308 308 308 308 308 308 307 306 306 305 305 304 304 303 301 299 298 296 293 291 289 287 287 287 286 282 280 277 274 272 267
308 309 309 309 309 309 309 309 309 309 309 309 309 308 307 306 305 305 304 303 301 299 298 296 294 291 289 288 288 287 286 284 279 278 277 274 270 264
309 310 310 310 310 310 310 310 310 310 310 310 309 308 307 306 305 304 303 302 300 297 296 295 292 288 288 288 287 285 283 279 277 277 275 271 266 260
310 311 311 311 311 311 310 310 310 310 311 311 309 308 307 306 305 304 303 301 298 295 294 292 288 287 287 286 284 281 279 276 274 272 270 266 261 258
311 311 311 311 311 311 311 311 310 311 311 311 309 308 308 306 305 304 302 300 297 294 292 289 286 285 284 282 280 278 275 272 269 268 267 263 262 258
311 312 312 312 312 311 311 311 311 311 311 310 309 309 307 306 304 302 300 299 295 292 290 286 283 282 281 279 278 275 270 266 263 265 264 262 261 258
311 311 312 312 311 311 311 311 311 311 311 310 309 308 307 305 302 299 298 296 294 290 287 283 279 278 276 274 273 271 266 261 258 260 260 261 260 255
311 311 311 311 311 311 311 311 311 310 310 309 308 307 305 303 300 297 294 293 289 286 284 279 276 273 270 269 267 265 261 256 254 258 260 260 256 249
311 311 311 311 311 311 310 310 310 309 308 308 306 305 302 300 297 294 290 288 282 281 278 274 272 268 266 264 262 260 256 252 251 254 256 255 249 241
311 311 311 311 311 311 310 310 309 308 307 306 304 301 299 297 293 290 287 281 275 275 273 269 268 265 263 261 258 255 253 250 250 250 247 240 229 221